owner,sensor,date,latitude,longitude,air_temperature,qcFlag 
COMPS,ioos:station:USF.COMPS:BGC:1,2010-01-01T00:00:00Z,26.4040,-81.8810,20.52,1111122 
COMPS,ioos:station:USF.COMPS:BGC:1,2010-01-01T00:06:00Z,26.4040,-81.8810,20.28,1111122 
COMPS,ioos:station:USF.COMPS:BGC:1,2010-01-01T00:12:00Z,26.4040,-81.8810,20.54,1111122 
COMPS,ioos:station:USF.COMPS:BGC:1,2010-01-01T00:18:00Z,26.4040,-81.8810,20.71,1111122 
COMPS,ioos:station:USF.COMPS:BGC:1,2010-01-01T00:24:00Z,26.4040,-81.8810,20.76,1111122 
COMPS,ioos:station:USF.COMPS:BGC:1,2010-01-01T00:30:00Z,26.4040,-81.8810,20.7,1111122 
COMPS,ioos:station:USF.COMPS:BGC:1,2010-01-01T00:36:00Z,26.4040,-81.8810,20.66,1111122 
COMPS,ioos:station:USF.COMPS:BGC:1,2010-01-01T00:42:00Z,26.4040,-81.8810,20.51,1111122 
COMPS,ioos:station:USF.COMPS:BGC:1,2010-01-01T00:48:00Z,26.4040,-81.8810,20.27,1111122 
COMPS,ioos:station:USF.COMPS:BGC:1,2010-01-01T00:54:00Z,26.4040,-81.8810,20.16,1111122 
COMPS,ioos:station:USF.COMPS:BGC:1,2010-01-01T01:00:00Z,26.4040,-81.8810,20.07,1111122 
COMPS,ioos:station:USF.COMPS:BGC:1,2010-01-01T01:06:00Z,26.4040,-81.8810,20.0,1111122 
COMPS,ioos:station:USF.COMPS:BGC:1,2010-01-01T01:12:00Z,26.4040,-81.8810,19.89,1111122 
COMPS,ioos:station:USF.COMPS:BGC:1,2010-01-01T01:18:00Z,26.4040,-81.8810,19.87,1111122 
COMPS,ioos:station:USF.COMPS:BGC:1,2010-01-01T01:24:00Z,26.4040,-81.8810,19.92,1111122 
COMPS,ioos:station:USF.COMPS:BGC:1,2010-01-01T01:30:00Z,26.4040,-81.8810,19.95,1111122 
COMPS,ioos:station:USF.COMPS:BGC:1,2010-01-01T01:36:00Z,26.4040,-81.8810,19.92,1111122 
COMPS,ioos:station:USF.COMPS:BGC:1,2010-01-01T01:42:00Z,26.4040,-81.8810,19.92,1111122 
COMPS,ioos:station:USF.COMPS:BGC:1,2010-01-01T01:48:00Z,26.4040,-81.8810,19.97,1111122 
COMPS,ioos:station:USF.COMPS:BGC:1,2010-01-01T01:54:00Z,26.4040,-81.8810,20.03,1111122 
COMPS,ioos:station:USF.COMPS:BGC:1,2010-01-01T02:00:00Z,26.4040,-81.8810,20.03,1111122 
COMPS,ioos:station:USF.COMPS:BGC:1,2010-01-01T02:06:00Z,26.4040,-81.8810,20.14,1111122 
COMPS,ioos:station:USF.COMPS:BGC:1,2010-01-01T02:12:00Z,26.4040,-81.8810,20.28,1111122 
COMPS,ioos:station:USF.COMPS:BGC:1,2010-01-01T02:18:00Z,26.4040,-81.8810,20.13,1111122 
COMPS,ioos:station:USF.COMPS:BGC:1,2010-01-01T02:24:00Z,26.4040,-81.8810,20.0,1111122 
COMPS,ioos:station:USF.COMPS:BGC:1,2010-01-01T02:30:00Z,26.4040,-81.8810,19.96,1111122 
COMPS,ioos:station:USF.COMPS:BGC:1,2010-01-01T02:36:00Z,26.4040,-81.8810,20.15,1111122 
COMPS,ioos:station:USF.COMPS:BGC:1,2010-01-01T02:42:00Z,26.4040,-81.8810,20.19,1111122 
COMPS,ioos:station:USF.COMPS:BGC:1,2010-01-01T02:48:00Z,26.4040,-81.8810,20.25,1111122 
COMPS,ioos:station:USF.COMPS:BGC:1,2010-01-01T02:54:00Z,26.4040,-81.8810,20.1,1111122 
COMPS,ioos:station:USF.COMPS:BGC:1,2010-01-01T03:00:00Z,26.4040,-81.8810,20.09,1111122 
COMPS,ioos:station:USF.COMPS:BGC:1,2010-01-01T03:06:00Z,26.4040,-81.8810,19.99,1111122 
COMPS,ioos:station:USF.COMPS:BGC:1,2010-01-01T03:12:00Z,26.4040,-81.8810,19.92,1111122 
COMPS,ioos:station:USF.COMPS:BGC:1,2010-01-01T03:18:00Z,26.4040,-81.8810,19.78,1111122 
COMPS,ioos:station:USF.COMPS:BGC:1,2010-01-01T03:24:00Z,26.4040,-81.8810,19.66,1111122 
COMPS,ioos:station:USF.COMPS:BGC:1,2010-01-01T03:30:00Z,26.4040,-81.8810,19.65,1111122 
COMPS,ioos:station:USF.COMPS:BGC:1,2010-01-01T03:36:00Z,26.4040,-81.8810,19.57,1111122 
COMPS,ioos:station:USF.COMPS:BGC:1,2010-01-01T03:42:00Z,26.4040,-81.8810,19.55,1111122 
COMPS,ioos:station:USF.COMPS:BGC:1,2010-01-01T03:48:00Z,26.4040,-81.8810,19.45,1111122 
COMPS,ioos:station:USF.COMPS:BGC:1,2010-01-01T03:54:00Z,26.4040,-81.8810,19.49,1111122 
COMPS,ioos:station:USF.COMPS:BGC:1,2010-01-01T04:00:00Z,26.4040,-81.8810,19.49,1111122 
COMPS,ioos:station:USF.COMPS:BGC:1,2010-01-01T04:06:00Z,26.4040,-81.8810,19.46,1111122 
COMPS,ioos:station:USF.COMPS:BGC:1,2010-01-01T04:12:00Z,26.4040,-81.8810,19.43,1111122 
COMPS,ioos:station:USF.COMPS:BGC:1,2010-01-01T04:18:00Z,26.4040,-81.8810,19.38,1111122 
COMPS,ioos:station:USF.COMPS:BGC:1,2010-01-01T04:24:00Z,26.4040,-81.8810,19.37,1111122 
COMPS,ioos:station:USF.COMPS:BGC:1,2010-01-01T04:30:00Z,26.4040,-81.8810,19.39,1111122 
COMPS,ioos:station:USF.COMPS:BGC:1,2010-01-01T04:36:00Z,26.4040,-81.8810,19.52,1111122 
COMPS,ioos:station:USF.COMPS:BGC:1,2010-01-01T04:42:00Z,26.4040,-81.8810,19.62,1111122 
COMPS,ioos:station:USF.COMPS:BGC:1,2010-01-01T04:48:00Z,26.4040,-81.8810,19.71,1111122 
COMPS,ioos:station:USF.COMPS:BGC:1,2010-01-01T04:54:00Z,26.4040,-81.8810,19.84,1111122 
COMPS,ioos:station:USF.COMPS:BGC:1,2010-01-01T05:00:00Z,26.4040,-81.8810,19.9,1111122 
COMPS,ioos:station:USF.COMPS:BGC:1,2010-01-01T05:06:00Z,26.4040,-81.8810,19.95,1111122 
COMPS,ioos:station:USF.COMPS:BGC:1,2010-01-01T05:12:00Z,26.4040,-81.8810,19.85,1111122 
COMPS,ioos:station:USF.COMPS:BGC:1,2010-01-01T05:18:00Z,26.4040,-81.8810,19.75,1111122 
COMPS,ioos:station:USF.COMPS:BGC:1,2010-01-01T05:24:00Z,26.4040,-81.8810,19.69,1111122 
COMPS,ioos:station:USF.COMPS:BGC:1,2010-01-01T05:30:00Z,26.4040,-81.8810,19.61,1111122 
COMPS,ioos:station:USF.COMPS:BGC:1,2010-01-01T05:36:00Z,26.4040,-81.8810,19.53,1111122 
COMPS,ioos:station:USF.COMPS:BGC:1,2010-01-01T05:42:00Z,26.4040,-81.8810,19.48,1111122 
COMPS,ioos:station:USF.COMPS:BGC:1,2010-01-01T05:48:00Z,26.4040,-81.8810,19.46,1111122 
COMPS,ioos:station:USF.COMPS:BGC:1,2010-01-01T05:54:00Z,26.4040,-81.8810,19.4,1111122 
COMPS,ioos:station:USF.COMPS:BGC:1,2010-01-01T06:00:00Z,26.4040,-81.8810,19.38,1111122 
COMPS,ioos:station:USF.COMPS:BGC:1,2010-01-01T06:06:00Z,26.4040,-81.8810,19.38,1111122 
COMPS,ioos:station:USF.COMPS:BGC:1,2010-01-01T06:12:00Z,26.4040,-81.8810,19.39,1111122 
COMPS,ioos:station:USF.COMPS:BGC:1,2010-01-01T06:18:00Z,26.4040,-81.8810,19.23,1111122 
COMPS,ioos:station:USF.COMPS:BGC:1,2010-01-01T06:24:00Z,26.4040,-81.8810,19.19,1111122 
COMPS,ioos:station:USF.COMPS:BGC:1,2010-01-01T06:30:00Z,26.4040,-81.8810,19.17,1111122 
COMPS,ioos:station:USF.COMPS:BGC:1,2010-01-01T06:36:00Z,26.4040,-81.8810,19.2,1111122 
COMPS,ioos:station:USF.COMPS:BGC:1,2010-01-01T06:42:00Z,26.4040,-81.8810,19.27,1111122 
COMPS,ioos:station:USF.COMPS:BGC:1,2010-01-01T06:48:00Z,26.4040,-81.8810,19.32,1111122 
COMPS,ioos:station:USF.COMPS:BGC:1,2010-01-01T06:54:00Z,26.4040,-81.8810,19.24,1111122 
COMPS,ioos:station:USF.COMPS:BGC:1,2010-01-01T07:00:00Z,26.4040,-81.8810,19.09,1111122 
COMPS,ioos:station:USF.COMPS:BGC:1,2010-01-01T07:06:00Z,26.4040,-81.8810,18.96,1111122 
COMPS,ioos:station:USF.COMPS:BGC:1,2010-01-01T07:12:00Z,26.4040,-81.8810,18.89,1111122 
COMPS,ioos:station:USF.COMPS:BGC:1,2010-01-01T07:18:00Z,26.4040,-81.8810,18.99,1111122 
COMPS,ioos:station:USF.COMPS:BGC:1,2010-01-01T07:24:00Z,26.4040,-81.8810,19.07,1111122 
COMPS,ioos:station:USF.COMPS:BGC:1,2010-01-01T07:30:00Z,26.4040,-81.8810,19.14,1111122 
COMPS,ioos:station:USF.COMPS:BGC:1,2010-01-01T07:36:00Z,26.4040,-81.8810,19.26,1111122 
COMPS,ioos:station:USF.COMPS:BGC:1,2010-01-01T07:42:00Z,26.4040,-81.8810,19.39,1111122 
COMPS,ioos:station:USF.COMPS:BGC:1,2010-01-01T07:48:00Z,26.4040,-81.8810,19.3,1111122 
COMPS,ioos:station:USF.COMPS:BGC:1,2010-01-01T07:54:00Z,26.4040,-81.8810,19.16,1111122 
COMPS,ioos:station:USF.COMPS:BGC:1,2010-01-01T08:00:00Z,26.4040,-81.8810,19.08,1111122 
COMPS,ioos:station:USF.COMPS:BGC:1,2010-01-01T08:06:00Z,26.4040,-81.8810,18.92,1111122 
COMPS,ioos:station:USF.COMPS:BGC:1,2010-01-01T08:12:00Z,26.4040,-81.8810,18.85,1111122 
COMPS,ioos:station:USF.COMPS:BGC:1,2010-01-01T08:18:00Z,26.4040,-81.8810,18.86,1111122 
COMPS,ioos:station:USF.COMPS:BGC:1,2010-01-01T08:24:00Z,26.4040,-81.8810,18.98,1111122 
COMPS,ioos:station:USF.COMPS:BGC:1,2010-01-01T08:30:00Z,26.4040,-81.8810,19.07,1111122 
COMPS,ioos:station:USF.COMPS:BGC:1,2010-01-01T08:36:00Z,26.4040,-81.8810,19.25,1111122 
COMPS,ioos:station:USF.COMPS:BGC:1,2010-01-01T08:42:00Z,26.4040,-81.8810,19.35,1111122 
COMPS,ioos:station:USF.COMPS:BGC:1,2010-01-01T08:48:00Z,26.4040,-81.8810,19.34,1111122 
COMPS,ioos:station:USF.COMPS:BGC:1,2010-01-01T08:54:00Z,26.4040,-81.8810,19.33,1111122 
COMPS,ioos:station:USF.COMPS:BGC:1,2010-01-01T09:00:00Z,26.4040,-81.8810,19.33,1111122 
COMPS,ioos:station:USF.COMPS:BGC:1,2010-01-01T09:06:00Z,26.4040,-81.8810,19.33,1111122 
COMPS,ioos:station:USF.COMPS:BGC:1,2010-01-01T09:12:00Z,26.4040,-81.8810,19.36,1111122 
COMPS,ioos:station:USF.COMPS:BGC:1,2010-01-01T09:18:00Z,26.4040,-81.8810,19.33,1111122 
COMPS,ioos:station:USF.COMPS:BGC:1,2010-01-01T09:24:00Z,26.4040,-81.8810,19.33,1111122 
COMPS,ioos:station:USF.COMPS:BGC:1,2010-01-01T09:30:00Z,26.4040,-81.8810,19.28,1111122 
COMPS,ioos:station:USF.COMPS:BGC:1,2010-01-01T09:36:00Z,26.4040,-81.8810,19.21,1111122 
COMPS,ioos:station:USF.COMPS:BGC:1,2010-01-01T09:42:00Z,26.4040,-81.8810,19.15,1111122 
COMPS,ioos:station:USF.COMPS:BGC:1,2010-01-01T09:48:00Z,26.4040,-81.8810,19.15,1111122 
COMPS,ioos:station:USF.COMPS:BGC:1,2010-01-01T09:54:00Z,26.4040,-81.8810,19.17,1111122 
COMPS,ioos:station:USF.COMPS:BGC:1,2010-01-01T10:00:00Z,26.4040,-81.8810,19.14,1111122 
COMPS,ioos:station:USF.COMPS:BGC:1,2010-01-01T10:06:00Z,26.4040,-81.8810,19.16,1111122 
COMPS,ioos:station:USF.COMPS:BGC:1,2010-01-01T10:12:00Z,26.4040,-81.8810,19.17,1111122 
COMPS,ioos:station:USF.COMPS:BGC:1,2010-01-01T10:18:00Z,26.4040,-81.8810,19.1,1111122 
COMPS,ioos:station:USF.COMPS:BGC:1,2010-01-01T10:24:00Z,26.4040,-81.8810,19.07,1111122 
COMPS,ioos:station:USF.COMPS:BGC:1,2010-01-01T10:30:00Z,26.4040,-81.8810,19.16,1111122 
COMPS,ioos:station:USF.COMPS:BGC:1,2010-01-01T10:36:00Z,26.4040,-81.8810,19.27,1111122 
COMPS,ioos:station:USF.COMPS:BGC:1,2010-01-01T10:42:00Z,26.4040,-81.8810,19.33,1111122 
COMPS,ioos:station:USF.COMPS:BGC:1,2010-01-01T10:48:00Z,26.4040,-81.8810,19.33,1111122 
COMPS,ioos:station:USF.COMPS:BGC:1,2010-01-01T10:54:00Z,26.4040,-81.8810,19.35,1111122 
COMPS,ioos:station:USF.COMPS:BGC:1,2010-01-01T11:00:00Z,26.4040,-81.8810,19.39,1111122 
COMPS,ioos:station:USF.COMPS:BGC:1,2010-01-01T11:06:00Z,26.4040,-81.8810,19.45,1111122 
COMPS,ioos:station:USF.COMPS:BGC:1,2010-01-01T11:12:00Z,26.4040,-81.8810,19.56,1111122 
COMPS,ioos:station:USF.COMPS:BGC:1,2010-01-01T11:18:00Z,26.4040,-81.8810,19.64,1111122 
COMPS,ioos:station:USF.COMPS:BGC:1,2010-01-01T11:24:00Z,26.4040,-81.8810,19.67,1111122 
COMPS,ioos:station:USF.COMPS:BGC:1,2010-01-01T11:30:00Z,26.4040,-81.8810,19.68,1111122 
COMPS,ioos:station:USF.COMPS:BGC:1,2010-01-01T11:36:00Z,26.4040,-81.8810,19.64,1111122 
COMPS,ioos:station:USF.COMPS:BGC:1,2010-01-01T11:42:00Z,26.4040,-81.8810,19.6,1111122 
COMPS,ioos:station:USF.COMPS:BGC:1,2010-01-01T11:48:00Z,26.4040,-81.8810,19.58,1111122 
COMPS,ioos:station:USF.COMPS:BGC:1,2010-01-01T11:54:00Z,26.4040,-81.8810,19.52,1111122 
COMPS,ioos:station:USF.COMPS:BGC:1,2010-01-01T12:00:00Z,26.4040,-81.8810,19.5,1111122 
COMPS,ioos:station:USF.COMPS:BGC:1,2010-01-01T12:06:00Z,26.4040,-81.8810,19.46,1111122 
COMPS,ioos:station:USF.COMPS:BGC:1,2010-01-01T12:12:00Z,26.4040,-81.8810,19.45,1111122 
COMPS,ioos:station:USF.COMPS:BGC:1,2010-01-01T12:18:00Z,26.4040,-81.8810,19.44,1111122 
COMPS,ioos:station:USF.COMPS:BGC:1,2010-01-01T12:24:00Z,26.4040,-81.8810,19.42,1111122 
COMPS,ioos:station:USF.COMPS:BGC:1,2010-01-01T12:30:00Z,26.4040,-81.8810,19.41,1111122 
COMPS,ioos:station:USF.COMPS:BGC:1,2010-01-01T12:36:00Z,26.4040,-81.8810,19.46,1111122 
COMPS,ioos:station:USF.COMPS:BGC:1,2010-01-01T12:42:00Z,26.4040,-81.8810,19.56,1111122 
COMPS,ioos:station:USF.COMPS:BGC:1,2010-01-01T12:48:00Z,26.4040,-81.8810,19.61,1111122 
COMPS,ioos:station:USF.COMPS:BGC:1,2010-01-01T12:54:00Z,26.4040,-81.8810,19.64,1111122 
COMPS,ioos:station:USF.COMPS:BGC:1,2010-01-01T13:00:00Z,26.4040,-81.8810,19.75,1111122 
COMPS,ioos:station:USF.COMPS:BGC:1,2010-01-01T13:06:00Z,26.4040,-81.8810,19.93,1111122 
COMPS,ioos:station:USF.COMPS:BGC:1,2010-01-01T13:12:00Z,26.4040,-81.8810,20.14,1111122 
COMPS,ioos:station:USF.COMPS:BGC:1,2010-01-01T13:18:00Z,26.4040,-81.8810,20.39,1111122 
COMPS,ioos:station:USF.COMPS:BGC:1,2010-01-01T13:24:00Z,26.4040,-81.8810,20.44,1111122 
COMPS,ioos:station:USF.COMPS:BGC:1,2010-01-01T13:30:00Z,26.4040,-81.8810,20.56,1111122 
COMPS,ioos:station:USF.COMPS:BGC:1,2010-01-01T13:36:00Z,26.4040,-81.8810,20.53,1111122 
COMPS,ioos:station:USF.COMPS:BGC:1,2010-01-01T13:42:00Z,26.4040,-81.8810,20.39,1111122 
COMPS,ioos:station:USF.COMPS:BGC:1,2010-01-01T13:48:00Z,26.4040,-81.8810,20.25,1111122 
COMPS,ioos:station:USF.COMPS:BGC:1,2010-01-01T13:54:00Z,26.4040,-81.8810,20.23,1111122 
COMPS,ioos:station:USF.COMPS:BGC:1,2010-01-01T14:00:00Z,26.4040,-81.8810,20.24,1111122 
COMPS,ioos:station:USF.COMPS:BGC:1,2010-01-01T14:06:00Z,26.4040,-81.8810,20.23,1111122 
COMPS,ioos:station:USF.COMPS:BGC:1,2010-01-01T14:12:00Z,26.4040,-81.8810,20.46,1111122 
COMPS,ioos:station:USF.COMPS:BGC:1,2010-01-01T14:18:00Z,26.4040,-81.8810,20.67,1111122 
COMPS,ioos:station:USF.COMPS:BGC:1,2010-01-01T14:24:00Z,26.4040,-81.8810,20.51,1111122 
COMPS,ioos:station:USF.COMPS:BGC:1,2010-01-01T14:30:00Z,26.4040,-81.8810,20.54,1111122 
COMPS,ioos:station:USF.COMPS:BGC:1,2010-01-01T14:36:00Z,26.4040,-81.8810,20.47,1111122 
COMPS,ioos:station:USF.COMPS:BGC:1,2010-01-01T14:42:00Z,26.4040,-81.8810,20.39,1111122 
COMPS,ioos:station:USF.COMPS:BGC:1,2010-01-01T14:48:00Z,26.4040,-81.8810,20.39,1111122 
COMPS,ioos:station:USF.COMPS:BGC:1,2010-01-01T14:54:00Z,26.4040,-81.8810,20.54,1111122 
COMPS,ioos:station:USF.COMPS:BGC:1,2010-01-01T15:00:00Z,26.4040,-81.8810,20.61,1111122 
COMPS,ioos:station:USF.COMPS:BGC:1,2010-01-01T15:06:00Z,26.4040,-81.8810,20.53,1111122 
COMPS,ioos:station:USF.COMPS:BGC:1,2010-01-01T15:12:00Z,26.4040,-81.8810,20.61,1111122 
COMPS,ioos:station:USF.COMPS:BGC:1,2010-01-01T15:18:00Z,26.4040,-81.8810,20.72,1111122 
COMPS,ioos:station:USF.COMPS:BGC:1,2010-01-01T15:24:00Z,26.4040,-81.8810,20.72,1111122 
COMPS,ioos:station:USF.COMPS:BGC:1,2010-01-01T15:30:00Z,26.4040,-81.8810,20.61,1111122 
COMPS,ioos:station:USF.COMPS:BGC:1,2010-01-01T15:36:00Z,26.4040,-81.8810,20.76,1111122 
COMPS,ioos:station:USF.COMPS:BGC:1,2010-01-01T15:42:00Z,26.4040,-81.8810,20.73,1111122 
COMPS,ioos:station:USF.COMPS:BGC:1,2010-01-01T15:48:00Z,26.4040,-81.8810,20.6,1111122 
COMPS,ioos:station:USF.COMPS:BGC:1,2010-01-01T15:54:00Z,26.4040,-81.8810,20.37,1111122 
COMPS,ioos:station:USF.COMPS:BGC:1,2010-01-01T16:00:00Z,26.4040,-81.8810,20.4,1111122 
COMPS,ioos:station:USF.COMPS:BGC:1,2010-01-01T16:06:00Z,26.4040,-81.8810,20.52,1111122 
COMPS,ioos:station:USF.COMPS:BGC:1,2010-01-01T16:12:00Z,26.4040,-81.8810,20.48,1111122 
COMPS,ioos:station:USF.COMPS:BGC:1,2010-01-01T16:18:00Z,26.4040,-81.8810,20.35,1111122 
COMPS,ioos:station:USF.COMPS:BGC:1,2010-01-01T16:24:00Z,26.4040,-81.8810,20.21,1111122 
COMPS,ioos:station:USF.COMPS:BGC:1,2010-01-01T16:30:00Z,26.4040,-81.8810,20.14,1111122 
COMPS,ioos:station:USF.COMPS:BGC:1,2010-01-01T16:36:00Z,26.4040,-81.8810,19.99,1111122 
COMPS,ioos:station:USF.COMPS:BGC:1,2010-01-01T16:42:00Z,26.4040,-81.8810,20.18,1111122 
COMPS,ioos:station:USF.COMPS:BGC:1,2010-01-01T16:48:00Z,26.4040,-81.8810,20.25,1111122 
COMPS,ioos:station:USF.COMPS:BGC:1,2010-01-01T16:54:00Z,26.4040,-81.8810,20.12,1111122 
COMPS,ioos:station:USF.COMPS:BGC:1,2010-01-01T19:00:00Z,26.4040,-81.8810,18.29,1111122 
COMPS,ioos:station:USF.COMPS:BGC:1,2010-01-01T19:06:00Z,26.4040,-81.8810,18.31,1111122 
COMPS,ioos:station:USF.COMPS:BGC:1,2010-01-01T19:12:00Z,26.4040,-81.8810,18.25,1111122 
COMPS,ioos:station:USF.COMPS:BGC:1,2010-01-01T19:18:00Z,26.4040,-81.8810,18.28,1111122 
COMPS,ioos:station:USF.COMPS:BGC:1,2010-01-01T19:24:00Z,26.4040,-81.8810,18.26,1111122 
COMPS,ioos:station:USF.COMPS:BGC:1,2010-01-01T19:30:00Z,26.4040,-81.8810,18.27,1111122 
COMPS,ioos:station:USF.COMPS:BGC:1,2010-01-01T19:36:00Z,26.4040,-81.8810,18.34,1111122 
COMPS,ioos:station:USF.COMPS:BGC:1,2010-01-01T19:42:00Z,26.4040,-81.8810,18.44,1111122 
COMPS,ioos:station:USF.COMPS:BGC:1,2010-01-01T19:48:00Z,26.4040,-81.8810,18.53,1111122 
COMPS,ioos:station:USF.COMPS:BGC:1,2010-01-01T19:54:00Z,26.4040,-81.8810,18.56,1111122 
COMPS,ioos:station:USF.COMPS:BGC:1,2010-01-01T20:00:00Z,26.4040,-81.8810,18.65,1111122 
COMPS,ioos:station:USF.COMPS:BGC:1,2010-01-01T20:06:00Z,26.4040,-81.8810,18.72,1111122 
COMPS,ioos:station:USF.COMPS:BGC:1,2010-01-01T20:12:00Z,26.4040,-81.8810,18.88,1111122 
COMPS,ioos:station:USF.COMPS:BGC:1,2010-01-01T20:18:00Z,26.4040,-81.8810,19.05,1111122 
COMPS,ioos:station:USF.COMPS:BGC:1,2010-01-01T20:24:00Z,26.4040,-81.8810,19.06,1111122 
COMPS,ioos:station:USF.COMPS:BGC:1,2010-01-01T20:30:00Z,26.4040,-81.8810,18.96,1111122 
COMPS,ioos:station:USF.COMPS:BGC:1,2010-01-01T20:36:00Z,26.4040,-81.8810,18.83,1111122 
COMPS,ioos:station:USF.COMPS:BGC:1,2010-01-01T20:42:00Z,26.4040,-81.8810,18.46,1111122 
COMPS,ioos:station:USF.COMPS:BGC:1,2010-01-01T20:48:00Z,26.4040,-81.8810,17.93,1111122 
COMPS,ioos:station:USF.COMPS:BGC:1,2010-01-01T20:54:00Z,26.4040,-81.8810,17.73,1111122 
COMPS,ioos:station:USF.COMPS:BGC:1,2010-01-01T21:00:00Z,26.4040,-81.8810,17.83,1111122 
COMPS,ioos:station:USF.COMPS:BGC:1,2010-01-01T21:06:00Z,26.4040,-81.8810,17.83,1111122 
COMPS,ioos:station:USF.COMPS:BGC:1,2010-01-01T21:12:00Z,26.4040,-81.8810,17.85,1111122 
COMPS,ioos:station:USF.COMPS:BGC:1,2010-01-01T21:18:00Z,26.4040,-81.8810,17.92,1111122 
COMPS,ioos:station:USF.COMPS:BGC:1,2010-01-01T21:24:00Z,26.4040,-81.8810,18.0,1111122 
COMPS,ioos:station:USF.COMPS:BGC:1,2010-01-01T21:30:00Z,26.4040,-81.8810,18.01,1111122 
COMPS,ioos:station:USF.COMPS:BGC:1,2010-01-01T21:36:00Z,26.4040,-81.8810,17.3,1111122 
COMPS,ioos:station:USF.COMPS:BGC:1,2010-01-01T21:42:00Z,26.4040,-81.8810,17.09,1111122 
COMPS,ioos:station:USF.COMPS:BGC:1,2010-01-01T21:48:00Z,26.4040,-81.8810,16.98,1111122 
COMPS,ioos:station:USF.COMPS:BGC:1,2010-01-01T21:54:00Z,26.4040,-81.8810,17.03,1111122 
COMPS,ioos:station:USF.COMPS:BGC:1,2010-01-01T22:00:00Z,26.4040,-81.8810,17.07,1111122 
COMPS,ioos:station:USF.COMPS:BGC:1,2010-01-01T22:06:00Z,26.4040,-81.8810,17.12,1111122 
COMPS,ioos:station:USF.COMPS:BGC:1,2010-01-01T22:12:00Z,26.4040,-81.8810,17.13,1111122 
COMPS,ioos:station:USF.COMPS:BGC:1,2010-01-01T22:18:00Z,26.4040,-81.8810,17.17,1111122 
COMPS,ioos:station:USF.COMPS:BGC:1,2010-01-01T22:24:00Z,26.4040,-81.8810,17.15,1111122 
COMPS,ioos:station:USF.COMPS:BGC:1,2010-01-01T22:30:00Z,26.4040,-81.8810,17.13,1111122 
COMPS,ioos:station:USF.COMPS:BGC:1,2010-01-01T22:36:00Z,26.4040,-81.8810,17.1,1111122 
COMPS,ioos:station:USF.COMPS:BGC:1,2010-01-01T22:42:00Z,26.4040,-81.8810,17.07,1111122 
COMPS,ioos:station:USF.COMPS:BGC:1,2010-01-01T22:48:00Z,26.4040,-81.8810,17.04,1111122 
COMPS,ioos:station:USF.COMPS:BGC:1,2010-01-01T22:54:00Z,26.4040,-81.8810,17.0,1111122 
COMPS,ioos:station:USF.COMPS:BGC:1,2010-01-01T23:00:00Z,26.4040,-81.8810,16.94,1111122 
COMPS,ioos:station:USF.COMPS:BGC:1,2010-01-01T23:06:00Z,26.4040,-81.8810,16.85,1111122 
COMPS,ioos:station:USF.COMPS:BGC:1,2010-01-01T23:12:00Z,26.4040,-81.8810,16.77,1111122 
COMPS,ioos:station:USF.COMPS:BGC:1,2010-01-01T23:18:00Z,26.4040,-81.8810,16.64,1111122 
COMPS,ioos:station:USF.COMPS:BGC:1,2010-01-01T23:24:00Z,26.4040,-81.8810,16.58,1111122 
COMPS,ioos:station:USF.COMPS:BGC:1,2010-01-01T23:30:00Z,26.4040,-81.8810,16.46,1111122 
COMPS,ioos:station:USF.COMPS:BGC:1,2010-01-01T23:36:00Z,26.4040,-81.8810,16.39,1111122 
COMPS,ioos:station:USF.COMPS:BGC:1,2010-01-01T23:42:00Z,26.4040,-81.8810,16.27,1111122 
COMPS,ioos:station:USF.COMPS:BGC:1,2010-01-01T23:48:00Z,26.4040,-81.8810,16.19,1111122 
COMPS,ioos:station:USF.COMPS:BGC:1,2010-01-01T23:54:00Z,26.4040,-81.8810,16.04,1111122 
COMPS,ioos:station:USF.COMPS:BGC:1,2010-01-02T00:00:00Z,26.4040,-81.8810,15.74,1111122 
COMPS,ioos:station:USF.COMPS:BGC:1,2010-01-02T00:06:00Z,26.4040,-81.8810,15.74,1111122 
COMPS,ioos:station:USF.COMPS:BGC:1,2010-01-02T00:12:00Z,26.4040,-81.8810,15.66,1111122 
COMPS,ioos:station:USF.COMPS:BGC:1,2010-01-02T00:18:00Z,26.4040,-81.8810,15.54,1111122 
COMPS,ioos:station:USF.COMPS:BGC:1,2010-01-02T00:24:00Z,26.4040,-81.8810,15.41,1111122 
COMPS,ioos:station:USF.COMPS:BGC:1,2010-01-02T00:30:00Z,26.4040,-81.8810,15.19,1111122 
COMPS,ioos:station:USF.COMPS:BGC:1,2010-01-02T00:36:00Z,26.4040,-81.8810,15.08,1111122 
COMPS,ioos:station:USF.COMPS:BGC:1,2010-01-02T00:42:00Z,26.4040,-81.8810,15.0,1111122 
COMPS,ioos:station:USF.COMPS:BGC:1,2010-01-02T00:48:00Z,26.4040,-81.8810,14.88,1111122 
COMPS,ioos:station:USF.COMPS:BGC:1,2010-01-02T00:54:00Z,26.4040,-81.8810,14.78,1111122 
COMPS,ioos:station:USF.COMPS:BGC:1,2010-01-02T01:00:00Z,26.4040,-81.8810,14.66,1111122 
COMPS,ioos:station:USF.COMPS:BGC:1,2010-01-02T01:06:00Z,26.4040,-81.8810,14.57,1111122 
COMPS,ioos:station:USF.COMPS:BGC:1,2010-01-02T01:12:00Z,26.4040,-81.8810,14.4,1111122 
COMPS,ioos:station:USF.COMPS:BGC:1,2010-01-02T01:18:00Z,26.4040,-81.8810,14.29,1111122 
COMPS,ioos:station:USF.COMPS:BGC:1,2010-01-02T01:24:00Z,26.4040,-81.8810,14.24,1111122 
COMPS,ioos:station:USF.COMPS:BGC:1,2010-01-02T01:30:00Z,26.4040,-81.8810,14.19,1111122 
COMPS,ioos:station:USF.COMPS:BGC:1,2010-01-02T01:36:00Z,26.4040,-81.8810,14.22,1111122 
COMPS,ioos:station:USF.COMPS:BGC:1,2010-01-02T01:42:00Z,26.4040,-81.8810,14.1,1111122 
COMPS,ioos:station:USF.COMPS:BGC:1,2010-01-02T01:48:00Z,26.4040,-81.8810,14.07,1111122 
COMPS,ioos:station:USF.COMPS:BGC:1,2010-01-02T01:54:00Z,26.4040,-81.8810,13.97,1111122 
COMPS,ioos:station:USF.COMPS:BGC:1,2010-01-02T02:00:00Z,26.4040,-81.8810,13.91,1111122 
COMPS,ioos:station:USF.COMPS:BGC:1,2010-01-02T02:06:00Z,26.4040,-81.8810,13.84,1111122 
COMPS,ioos:station:USF.COMPS:BGC:1,2010-01-02T02:12:00Z,26.4040,-81.8810,13.86,1111122 
COMPS,ioos:station:USF.COMPS:BGC:1,2010-01-02T02:18:00Z,26.4040,-81.8810,13.83,1111122 
COMPS,ioos:station:USF.COMPS:BGC:1,2010-01-02T02:24:00Z,26.4040,-81.8810,13.76,1111122 
COMPS,ioos:station:USF.COMPS:BGC:1,2010-01-02T02:30:00Z,26.4040,-81.8810,13.66,1111122 
COMPS,ioos:station:USF.COMPS:BGC:1,2010-01-02T02:36:00Z,26.4040,-81.8810,13.72,1111122 
COMPS,ioos:station:USF.COMPS:BGC:1,2010-01-02T02:42:00Z,26.4040,-81.8810,13.78,1111122 
COMPS,ioos:station:USF.COMPS:BGC:1,2010-01-02T02:48:00Z,26.4040,-81.8810,13.85,1111122 
COMPS,ioos:station:USF.COMPS:BGC:1,2010-01-02T02:54:00Z,26.4040,-81.8810,13.84,1111122 
COMPS,ioos:station:USF.COMPS:BGC:1,2010-01-02T03:00:00Z,26.4040,-81.8810,13.75,1111122 
COMPS,ioos:station:USF.COMPS:BGC:1,2010-01-02T03:06:00Z,26.4040,-81.8810,13.67,1111122 
COMPS,ioos:station:USF.COMPS:BGC:1,2010-01-02T03:12:00Z,26.4040,-81.8810,13.67,1111122 
COMPS,ioos:station:USF.COMPS:BGC:1,2010-01-02T03:18:00Z,26.4040,-81.8810,13.75,1111122 
COMPS,ioos:station:USF.COMPS:BGC:1,2010-01-02T03:24:00Z,26.4040,-81.8810,13.75,1111122 
COMPS,ioos:station:USF.COMPS:BGC:1,2010-01-02T03:30:00Z,26.4040,-81.8810,13.71,1111122 
COMPS,ioos:station:USF.COMPS:BGC:1,2010-01-02T03:36:00Z,26.4040,-81.8810,13.72,1111122 
COMPS,ioos:station:USF.COMPS:BGC:1,2010-01-02T03:42:00Z,26.4040,-81.8810,13.66,1111122 
COMPS,ioos:station:USF.COMPS:BGC:1,2010-01-02T03:48:00Z,26.4040,-81.8810,13.62,1111122 
COMPS,ioos:station:USF.COMPS:BGC:1,2010-01-02T03:54:00Z,26.4040,-81.8810,13.46,1111122 
COMPS,ioos:station:USF.COMPS:BGC:1,2010-01-02T04:00:00Z,26.4040,-81.8810,13.33,1111122 
COMPS,ioos:station:USF.COMPS:BGC:1,2010-01-02T04:06:00Z,26.4040,-81.8810,13.27,1111122 
COMPS,ioos:station:USF.COMPS:BGC:1,2010-01-02T04:12:00Z,26.4040,-81.8810,13.21,1111122 
COMPS,ioos:station:USF.COMPS:BGC:1,2010-01-02T04:18:00Z,26.4040,-81.8810,13.17,1111122 
COMPS,ioos:station:USF.COMPS:BGC:1,2010-01-02T04:24:00Z,26.4040,-81.8810,13.16,1111122 
COMPS,ioos:station:USF.COMPS:BGC:1,2010-01-02T04:30:00Z,26.4040,-81.8810,13.13,1111122 
COMPS,ioos:station:USF.COMPS:BGC:1,2010-01-02T04:36:00Z,26.4040,-81.8810,13.01,1111122 
COMPS,ioos:station:USF.COMPS:BGC:1,2010-01-02T04:42:00Z,26.4040,-81.8810,13.02,1111122 
COMPS,ioos:station:USF.COMPS:BGC:1,2010-01-02T04:48:00Z,26.4040,-81.8810,12.92,1111122 
COMPS,ioos:station:USF.COMPS:BGC:1,2010-01-02T04:54:00Z,26.4040,-81.8810,12.9,1111122 
COMPS,ioos:station:USF.COMPS:BGC:1,2010-01-02T05:00:00Z,26.4040,-81.8810,12.88,1111122 
COMPS,ioos:station:USF.COMPS:BGC:1,2010-01-02T05:06:00Z,26.4040,-81.8810,12.85,1111122 